Dewpoint
41 40 43 31 28 23 14 9 8 10 23 30 33 42 53 56 56 48 66 66 66 66 67 68 68 69 70 70 70 71 71 71 71 71 70 69 69 68 68 69 69 69 69 69 69 69 69 70 70
35 30 29 27 25 18 10 11 11 15 38 38 41 41 46 56 61 64 64 65 65 65 67 68 69 69 69 69 70 70 70 70 69 69 68 68 67 67 67 67 66 66 67 67 68 67 67 67 67
42 32 25 22 21 16 12 9 16 36 43 38 40 52 54 58 61 63 65 65 66 66 67 68 69 69 69 68 68 68 68 67 67 67 66 66 65 64 64 63 63 63 64 64 64 64 63 64 64
26 22 23 17 14 13 10 11 16 21 43 37 41 55 58 60 60 63 65 64 65 65 65 66 67 67 67 66 66 65 65 64 64 63 63 62 62 61 60 59 59 59 59 59 59 58 58 59 60
21 19 17 16 15 15 15 14 16 21 37 38 40 53 57 60 62 63 64 64 63 63 63 63 65 65 65 64 63 63 62 62 61 60 59 59 58 57 56 54 54 53 53 53 53 53 52 53 54
19 15 15 14 11 10 10 16 18 21 33 40 40 55 56 60 61 62 63 63 63 62 61 61 62 62 62 61 60 59 58 58 57 56 55 54 53 53 52 51 51 50 50 50 50 50 50 50 49
20 14 11 11 11 11 10 14 17 19 31 36 40 52 57 59 61 61 62 63 62 62 60 60 59 59 58 57 57 56 55 54 53 52 51 51 50 49 49 49 48 47 47 46 46 46 46 47 47
19 17 13 11 10 9 9 16 19 20 26 35 39 47 55 58 59 59 61 61 61 61 60 58 57 57 56 55 54 53 52 51 49 48 50 50 50 49 45 41 44 43 44 43 43 43 43 45 46
19 16 14 10 7 7 16 20 20 21 22 43 51 55 57 58 57 57 57 59 60 60 60 58 56 55 54 53 51 50 50 50 48 46 44 48 44 40 44 42 42 41 42 42 41 41 40 45 42
17 16 14 12 10 9 12 14 15 20 36 40 54 56 57 57 56 55 55 56 57 57 58 59 57 55 51 44 49 49 48 49 46 45 45 45 44 39 38 40 39 40 38 42 41 43 43 42 42
19 15 15 13 13 12 12 14 14 15 26 36 45 54 55 54 54 54 54 55 55 55 56 56 57 54 50 47 48 45 46 47 47 45 45 43 43 43 41 40 40 39 37 39 40 41 42 43 43
20 18 16 16 15 12 11 12 12 13 15 22 34 54 54 53 53 53 54 54 54 55 55 55 54 51 50 47 46 44 43 44 44 44 44 43 42 43 41 39 38 37 37 41 41 41 41 42 42
20 16 16 16 14 13 12 12 12 12 13 16 24 53 53 53 54 54 54 54 55 55 53 53 52 50 48 46 46 44 42 43 43 43 43 43 42 41 39 39 37 38 40 40 40 41 41 41 41
27 25 21 19 17 15 14 13 13 14 14 15 23 52 52 53 53 54 54 54 54 53 52 52 50 49 47 47 46 45 43 43 42 42 43 42 42 41 38 38 38 40 40 39 40 40 41 41 41
27 25 25 23 20 17 16 13 12 14 14 14 17 39 52 52 53 54 55 55 53 50 49 49 48 48 47 47 45 44 42 41 42 42 42 41 41 40 38 38 40 41 40 39 40 40 40 40 39
28 27 23 22 23 23 18 14 15 15 15 15 20 31 41 51 51 53 55 56 50 47 47 46 45 47 47 46 43 40 41 39 39 41 41 40 39 39 38 38 41 41 39 40 40 40 39 39 39
28 25 23 21 22 23 20 16 16 16 16 15 20 31 36 47 50 52 54 53 47 46 45 44 45 46 45 44 41 40 40 37 36 38 39 39 38 39 38 39 40 40 39 40 39 39 39 37 36
24 23 23 22 22 22 20 17 17 18 16 16 18 29 34 44 49 51 53 51 46 44 44 43 44 45 43 42 41 39 37 36 36 36 37 37 38 37 36 38 38 38 38 39 39 38 38 37 35
29 28 26 26 25 21 20 19 18 16 17 16 19 26 29 40 47 51 52 48 45 43 42 41 43 44 41 40 37 36 35 34 35 35 35 36 36 36 36 35 37 38 38 38 36 36 35 34 35
32 30 29 29 27 25 24 23 25 23 19 17 15 24 27 35 43 50 49 46 42 41 41 40 43 42 40 38 36 36 34 34 34 36 35 35 35 35 35 35 35 37 36 36 36 34 33 33 33
33 31 30 27 27 27 27 26 28 29 29 29 28 23 25 26 41 46 47 44 41 40 40 40 41 41 38 37 38 35 34 33 33 35 34 33 34 34 34 34 35 35 35 34 34 33 32 31 30
34 35 30 29 29 29 33 29 30 29 29 29 29 27 23 25 38 44 45 42 39 40 41 40 41 40 38 37 35 32 31 30 32 32 33 32 34 31 31 33 34 34 34 34 33 32 32 31 28
33 35 32 34 36 36 36 34 32 31 29 28 29 30 28 25 29 42 43 41 39 41 40 40 40 39 38 36 35 34 32 32 30 32 31 33 33 29 28 30 32 32 32 33 32 32 33 31 29
34 34 37 38 40 34 36 33 32 31 30 30 30 30 30 26 27 41 42 41 39 40 40 40 39 38 37 37 36 35 33 29 29 31 31 31 32 30 27 28 30 31 31 31 31 32 31 31 28
34 34 33 31 31 30 32 29 31 30 29 29 30 29 28 28 27 39 40 39 39 39 39 39 38 36 37 36 36 35 31 30 29 30 29 28 28 28 27 26 28 29 29 30 30 31 29 31 29
33 34 30 25 26 26 28 25 25 29 28 28 28 28 30 29 30 40 39 39 40 39 39 38 36 35 36 36 35 34 30 31 30 28 27 27 27 27 26 26 27 27 27 28 29 29 27 29 30
31 33 34 32 33 30 27 25 24 27 27 27 25 27 28 30 35 39 40 40 40 39 39 38 36 35 35 35 34 32 31 28 28 28 29 28 28 26 26 25 26 26 27 27 27 28 27 28 28
35 33 33 34 27 26 26 27 25 33 29 28 25 27 28 29 37 39 40 40 39 39 40 38 37 35 35 34 33 31 28 30 29 28 28 29 26 27 26 26 26 26 27 27 26 27 26 27 27
35 37 37 38 35 25 22 26 31 34 35 34 29 27 31 29 33 39 40 40 39 40 39 38 36 35 34 33 31 30 30 30 30 29 31 30 29 27 26 26 25 26 27 26 26 25 25 26 25
36 37 36 33 30 32 32 30 40 41 40 33 33 30 31 33 34 38 41 40 40 40 40 39 36 35 34 32 31 31 31 29 30 30 31 30 28 26 26 25 24 25 25 25 25 25 25 24 24
Wind_Speed
19 15 13 13 8 12 21 26 30 3 2 2 8 15 19 18 8 9 6 16 22 21 16 14 15 15 15 15 14 14 14 16 18 19 18 17 15 14 14 15 17 14 12 11 10 10 11 12 11
11 18 11 9 12 18 21 17 8 3 16 10 8 4 6 8 10 14 10 14 20 18 16 13 15 16 17 19 19 21 20 19 19 19 18 18 17 16 17 17 16 13 13 14 15 15 15 14 13
13 16 11 6 18 21 24 15 9 13 11 1 3 13 9 6 12 4 12 20 18 18 17 14 17 18 19 20 20 20 19 19 19 19 18 18 17 16 16 17 16 16 15 14 13 13 12 11 11
13 13 10 11 21 25 27 16 9 9 6 4 5 11 9 11 10 13 17 20 20 18 18 16 18 18 19 19 20 20 20 19 19 19 17 16 16 15 16 16 15 15 14 14 14 14 14 14 13
14 10 17 24 26 27 28 4 5 11 1 8 9 13 8 7 23 17 22 20 22 17 16 16 18 18 19 19 20 20 19 18 17 18 17 16 16 16 16 15 15 14 14 14 14 13 13 13 13
11 16 20 22 24 24 19 4 4 9 11 10 16 15 7 17 23 18 19 20 20 19 16 17 18 19 19 20 20 20 18 17 17 17 16 15 16 16 15 15 14 13 13 13 14 14 14 14 13
17 17 22 26 28 26 28 12 10 11 16 16 17 12 12 19 21 20 20 19 20 19 18 16 16 19 20 18 19 19 18 17 16 15 14 14 15 15 13 14 13 13 12 13 13 13 14 13 13
19 20 26 25 24 26 28 4 4 8 17 14 10 9 10 24 23 17 22 19 19 19 19 17 16 16 16 16 18 19 17 15 14 12 10 10 14 15 14 11 10 11 9 9 13 14 14 14 16
21 21 24 26 26 22 9 1 9 13 21 3 10 14 17 31 26 20 16 15 18 16 18 19 18 17 16 16 16 17 16 15 14 11 5 7 10 8 13 7 6 6 10 8 12 10 15 16 16
21 22 26 27 27 21 20 20 6 19 9 10 20 23 28 26 25 24 22 20 18 18 15 14 17 18 17 16 17 15 12 9 7 8 7 8 8 3 4 5 2 3 12 9 15 14 15 17 14
26 27 26 28 28 26 19 21 22 17 20 17 16 28 30 28 23 23 23 23 22 20 17 16 14 17 16 15 13 12 12 11 9 7 5 4 9 6 7 8 8 8 12 10 12 12 13 14 13
29 28 26 24 26 27 25 22 24 26 21 19 20 38 31 30 29 26 24 25 24 23 20 18 15 14 11 13 12 12 11 11 11 7 5 3 9 7 7 8 8 8 9 10 10 8 10 11 10
26 25 25 25 27 27 26 26 26 26 26 20 17 32 28 26 25 24 23 22 23 23 21 19 17 14 11 11 11 13 11 12 11 9 7 7 10 7 8 6 8 10 9 10 9 10 11 11 11
25 29 31 30 30 27 27 29 24 25 24 26 18 27 27 28 28 25 25 25 25 23 22 19 18 14 13 12 13 11 13 10 11 9 8 9 9 6 6 7 9 11 10 10 10 13 12 12 13
25 26 25 28 28 31 29 36 34 27 24 26 26 17 29 27 27 27 26 26 25 23 22 19 18 16 14 16 14 11 11 11 12 10 9 9 8 6 6 8 11 11 9 11 12 12 13 13 14
29 31 34 24 29 31 30 38 28 26 25 30 21 18 19 27 28 26 26 26 24 23 24 21 18 17 17 15 13 12 11 12 12 12 9 10 8 7 8 11 12 9 8 10 11 12 12 13 13
23 33 31 34 29 31 30 32 23 22 24 25 25 19 20 20 23 27 27 25 27 25 25 20 18 19 18 17 14 12 12 12 11 11 10 10 8 8 8 11 10 9 9 11 12 12 13 14 13
24 26 28 31 28 27 27 27 25 24 20 25 28 23 23 23 26 24 29 26 26 26 26 21 20 19 18 15 15 12 11 12 12 12 9 10 9 9 8 11 8 9 11 11 12 13 13 14 16
30 31 34 31 31 29 21 25 24 21 18 23 23 21 21 25 24 29 26 23 25 27 27 25 23 21 19 18 18 16 15 13 13 11 10 10 11 9 12 9 9 11 9 11 13 12 15 12 16
31 33 35 31 30 29 29 35 29 27 25 26 27 24 25 23 28 28 27 25 26 29 28 25 23 23 20 18 17 15 15 13 13 12 11 10 11 9 12 9 10 9 9 12 12 13 11 9 15
32 35 30 34 30 29 30 38 31 29 27 27 27 28 28 27 31 32 33 30 25 28 28 27 26 24 20 19 17 17 16 13 12 12 12 9 10 11 10 10 9 8 9 10 10 11 12 12 11
29 33 32 32 28 26 24 35 35 28 30 27 31 31 28 28 29 33 35 33 30 25 24 24 24 24 19 19 18 19 17 16 13 12 15 10 11 11 9 8 8 8 8 10 10 9 8 9 11
36 28 28 16 21 24 39 17 51 23 30 30 29 29 36 34 27 37 39 36 33 29 25 22 23 23 17 18 19 19 14 18 15 15 13 15 11 10 8 7 7 8 8 8 7 6 7 10 10
19 18 22 24 15 14 49 22 30 27 29 32 32 31 29 35 33 37 39 37 34 30 27 22 23 22 20 17 20 16 22 19 17 15 14 12 11 11 8 7 6 8 7 6 6 4 8 9 8
22 18 8 11 14 24 30 24 32 30 24 32 24 21 18 34 36 34 40 38 35 34 31 26 26 22 21 17 18 17 20 19 18 16 14 13 11 11 9 7 8 7 6 5 4 5 8 6 6
28 29 21 24 24 26 27 30 36 35 36 32 25 1 10 20 24 32 38 36 36 34 34 29 26 23 21 16 17 18 18 15 15 14 14 10 12 13 8 8 8 6 6 4 4 9 6 6 7
43 33 34 30 32 22 23 36 32 30 36 9 4 11 4 13 15 25 33 32 33 31 31 29 25 22 20 17 17 19 16 17 16 16 15 12 14 10 8 7 8 6 5 5 5 10 6 6 8
22 23 30 16 15 11 19 27 17 15 16 6 4 8 6 6 16 19 27 29 29 30 31 30 25 24 20 17 17 17 19 18 17 14 17 14 11 10 8 9 7 6 7 6 7 9 7 8 9
15 22 13 5 6 12 25 11 12 11 14 15 6 5 7 1 9 17 23 27 27 27 29 29 26 26 23 20 18 19 18 19 15 17 15 15 11 10 10 9 8 7 7 6 7 8 8 8 10
11 9 15 15 10 6 4 8 15 21 27 16 15 9 11 3 10 15 18 25 24 27 26 25 25 25 21 18 19 19 20 19 17 17 16 13 12 11 10 9 9 8 6 7 8 9 8 9 11
Wind_Direction
302 263 236 266 255 234 261 255 258 64 162 53 358 47 98 41 35 126 109 101 111 111 118 106 111 117 121 117 111 100 99 93 90 85 81 79 77 72 68 61 55 50 45 33 22 13 11 11 5
296 301 255 273 249 271 266 310 85 31 80 80 61 23 42 73 69 122 106 113 114 124 123 114 114 108 98 93 91 89 90 90 87 85 84 80 73 67 64 60 55 52 46 38 35 32 29 24 17
270 261 276 234 241 254 275 322 357 80 60 94 132 48 43 73 112 84 131 119 117 110 107 103 98 99 96 95 95 94 93 90 88 85 82 78 73 66 62 59 55 51 47 41 32 27 23 17 14
276 256 241 254 261 277 293 316 39 314 93 219 183 92 83 49 131 129 140 126 115 106 106 101 98 99 102 100 96 95 93 89 88 88 88 90 89 81 72 65 58 51 44 40 34 26 17 14 8
280 261 267 267 271 271 268 288 34 309 284 213 214 136 96 88 116 137 137 125 120 113 115 108 102 104 105 104 99 97 101 104 105 99 95 93 87 79 72 66 58 50 42 34 29 21 13 6 2
275 254 263 270 272 279 308 26 58 292 265 220 227 107 117 133 138 153 126 125 124 122 120 111 110 112 113 113 112 111 109 107 103 101 99 97 91 83 72 63 53 46 38 29 22 12 1 354 346
256 274 268 272 282 286 285 292 195 249 250 236 226 134 136 154 142 154 126 131 130 130 128 124 125 119 113 114 115 113 112 110 108 107 109 107 97 85 74 62 52 42 35 27 17 9 356 347 334
262 269 275 271 275 281 280 61 44 260 267 265 227 181 160 169 150 146 132 134 135 139 140 136 140 132 125 121 120 118 119 117 118 117 124 128 116 107 82 56 50 40 34 22 17 4 352 336 321
258 266 263 266 269 288 342 47 293 286 265 166 65 53 125 148 150 146 147 144 140 147 151 153 157 145 133 133 131 128 129 134 129 113 114 159 70 27 97 81 72 39 17 358 358 343 335 335 354
262 250 264 275 287 312 295 303 280 278 233 251 98 99 127 149 156 163 166 167 167 161 162 165 148 142 152 141 158 157 153 121 83 81 74 99 94 70 62 121 80 97 21 14 4 0 4 9 351
272 259 268 273 293 309 301 288 289 260 254 222 203 151 154 160 171 176 177 176 172 168 164 168 153 156 177 141 151 152 138 121 91 57 70 55 85 35 43 40 49 11 28 19 4 4 11 350 344
281 281 263 286 284 295 288 287 272 274 268 272 237 159 161 170 176 183 182 179 175 176 167 166 159 173 165 162 174 124 116 120 102 65 26 48 81 62 46 47 33 30 17 26 356 4 352 341 333
279 280 281 281 271 271 276 267 268 275 279 262 259 146 164 173 182 184 185 181 179 174 166 164 163 175 141 167 119 100 116 104 118 107 50 33 72 37 59 48 43 44 8 14 351 8 342 344 334
286 287 283 281 284 280 279 270 262 258 264 272 241 157 169 179 181 182 186 185 188 171 163 163 167 159 155 120 113 115 99 122 104 88 77 46 73 42 47 52 45 37 7 356 358 358 354 339 345
279 286 285 272 266 266 263 263 258 259 258 252 248 191 174 182 182 187 188 192 179 167 157 166 161 154 157 133 130 134 151 130 120 107 90 73 57 42 37 55 50 24 347 6 10 4 354 349 338
274 276 273 272 264 259 244 261 260 249 240 252 233 211 204 179 183 186 189 206 163 161 162 169 159 159 140 148 142 141 145 127 123 120 102 87 68 34 51 56 53 350 7 23 13 7 352 342 331
252 259 265 274 265 265 249 259 272 250 258 257 225 214 214 194 188 182 188 196 166 164 160 168 159 157 157 144 130 133 138 125 119 113 107 97 74 50 41 68 52 350 22 30 15 2 354 336 345
247 253 255 257 259 247 261 253 248 255 252 282 276 203 212 195 192 186 195 181 169 160 156 165 163 165 143 142 137 154 131 126 115 104 101 91 79 56 33 69 54 16 35 24 16 1 356 334 354
260 271 275 278 286 290 274 272 273 278 261 236 253 212 226 196 189 180 195 172 167 153 159 168 169 159 157 159 159 156 149 133 113 108 107 89 74 55 54 45 52 31 28 34 15 13 350 357 4
258 258 263 268 267 276 280 275 268 261 245 250 259 221 221 208 184 180 169 172 170 162 165 169 168 169 172 170 164 160 142 139 130 116 95 88 82 61 72 50 46 35 16 42 19 23 354 359 26
257 260 261 267 275 270 272 273 267 265 260 246 249 257 215 223 186 179 171 174 173 167 170 173 169 173 184 172 138 125 108 115 128 138 124 99 90 77 64 59 49 33 37 40 30 26 16 0 19
257 260 267 272 290 278 283 281 272 272 271 265 236 229 234 209 189 182 171 171 174 169 171 173 170 178 188 150 146 148 151 158 158 136 123 112 95 80 69 63 54 49 44 44 29 23 17 21 16
253 254 264 309 284 277 270 251 273 267 267 264 269 235 221 203 195 182 174 171 171 163 172 176 171 182 165 157 157 168 154 123 120 117 131 117 107 96 83 69 65 57 52 47 53 10 34 50 38
283 282 269 280 272 264 257 227 269 258 265 267 261 269 231 198 194 177 172 168 170 163 165 174 173 182 161 179 162 176 135 135 131 136 137 145 137 125 87 89 75 71 48 41 28 18 42 68 57
252 262 242 243 237 249 256 257 240 272 273 279 256 285 284 185 187 169 167 171 169 164 163 173 175 175 171 176 157 139 132 135 140 150 141 137 139 121 98 81 67 63 62 39 12 55 43 49 72
236 233 226 240 242 252 253 250 254 253 257 251 263 296 143 172 174 162 166 169 167 167 164 167 175 170 170 158 144 129 130 132 136 125 120 116 113 102 103 98 90 69 59 37 335 68 27 29 46
239 232 234 248 264 273 263 273 275 277 279 254 299 51 68 164 159 166 161 166 164 164 161 161 171 160 159 158 143 134 137 125 122 116 111 99 102 113 114 102 97 83 70 42 8 78 30 30 31
237 249 234 206 232 233 247 251 267 340 325 157 167 112 52 120 144 146 149 161 164 161 155 157 163 159 155 148 143 140 128 119 121 129 120 113 101 106 121 106 98 96 73 50 53 68 40 44 35
208 231 217 199 234 243 251 268 35 17 360 1 12 175 96 339 151 154 153 161 161 155 156 159 157 152 151 154 152 136 129 124 126 115 115 114 132 130 119 122 119 100 94 75 74 88 60 52 49
296 270 252 225 217 250 294 241 37 360 356 5 4 20 57 35 123 141 140 152 151 152 156 157 146 149 151 155 144 132 124 126 131 124 119 142 139 127 125 125 112 110 107 96 82 74 72 58 54